Regional Weather Roundup
Issued by NWS

Home | Current Version | Previous Version | Graphics & Text | Print | Product List | Glossary On
Versions: 1 2 3 4 5 6 7 8 9 10 11 12 13 14 15 16 17 18 19 20 21 22 23 24 25 26 27 28 29 30 31 32 33 34 35 36 37 38 39 40 41 42 43 44 45 46 47 48 49 50
000
ASUS43 KDTX 052001
RWRMI
MICHIGAN HOURLY REGIONAL WEATHER ROUNDUP
NATIONAL WEATHER SERVICE DETROIT/PONTIAC MI
400 PM EDT TUE MAY 05 2015

NOTE: "FAIR" INDICATES FEW OR NO CLOUDS BELOW 12,000 FEET WITH NO
SIGNIFICANT WEATHER AND/OR OBSTRUCTION TO VISIBILITY.

MIZ047>049-052>055-059>063-066>070-074>076-081>083-052100-
SOUTHEAST LOWER MICHIGAN

CITY           SKY/WX    TMP DP  RH WIND       PRES   REMARKS
ADRIAN         CLOUDY    54  51  90 E8        30.28S
ALMA           CLOUDY    54  49  84 MISG      30.30F
ANN ARBOR      LGT RAIN  52  48  86 NE9       30.28F
BAD AXE        CLOUDY    55  44  67 N7        30.31F
CARO           DRIZZLE   56  45  65 CALM      30.30F
DETROIT CITY   LGT RAIN  52  46  80 NE7       30.30F
DETROIT        LGT RAIN  53  45  74 N7        30.29F
FLINT          LGT RAIN  53  48  83 N3        30.32S
GROSSE ILE     CLOUDY    52  46  82 NE8       30.28S
HILLSDALE      LGT RAIN  54  53  98 E7        30.26F
HOWELL         RAIN      49  48  95 CALM      30.30R

CITY           SKY/WX    TMP DP  RH WIND       PRES   REMARKS
JACKSON        CLOUDY    51  47  86 NE8       30.29S
LAMBERTVILLE   CLOUDY    54  50  87 E5        30.28S
LANSING        LGT RAIN  49  47  93 NE6       30.31F FOG
LAPEER         LGT RAIN  50  47  90 CALM      30.30F
MASON          RAIN      48  46  91 NE7       30.30S
MONROE         RAIN      54  50  87 NE3       30.27S
MT. CLEMENS    LGT RAIN  53  50  89 N7        30.27S FOG
PONTIAC        LGT RAIN  52  50  93 NE6       30.29S
PORT HOPE        N/A     46  39  76 NW3       30.30F
PORT HURON     LGT RAIN  46  45  93 N6        30.31R
TRI CITIES     CLOUDY    60  43  53 SE5       30.31F
MIDLAND        CLOUDY    61  37  41 CALM      30.30S
TROY           LGT RAIN  53  50  89 NE5       30.30F
SAGINAW HB     CLOUDY    55  43  62 CALM      30.30F
$$
MIZ043>046-050>051-056>058-064>065-071>073-077>080-052100-
SOUTHWEST LOWER MICHIGAN

CITY           SKY/WX    TMP DP  RH WIND       PRES   REMARKS
BATTLE CREEK   LGT RAIN  50  47  89 NE10      30.28F FOG
BENTON HARBOR  CLOUDY    55  52  89 E9        30.23F
BIG RAPIDS     CLOUDY    62  24  23 NE9       30.28F
COLDWATER      CLOUDY    54  52  93 NE7       30.26S FOG
FREMONT        CLOUDY    57  44  60 E6        30.28F
HOLLAND        LGT RAIN  50  47  89 E13       30.29S
GRAND RAPIDS   LGT RAIN  50  47  89 E12       30.29F
IONIA          LGT RAIN  50  47  90 E9        30.29F
KALAMAZOO      LGT RAIN  51  48  89 NE6       30.28F FOG
LUDINGTON      MOSUNNY   58  36  43 W10       30.29S
MARSHALL       LGT RAIN  48  47  93 NE7       30.27F
MOUNT PLEASANT CLOUDY    60  40  47 SE3       30.28F
MUSKEGON       CLOUDY    59  48  67 E15       30.27F
SOUTH HAVEN    CLOUDY    53  51  91 E7        30.25F
$$
MIZ016>042-052100-
NORTHERN LOWER MICHIGAN

CITY           SKY/WX    TMP DP  RH WIND       PRES   REMARKS
ALPENA         PTSUNNY   59  45  59 SE8       30.31S
BEAVER ISLAND  SUNNY     64  30  27 W6        30.30F
BELLAIRE       MOSUNNY   70  17  13 CALM      30.27F
CADILLAC       CLOUDY    65  17  15 NE7       30.27F
CHARLEVOIX     SUNNY     60  33  36 N8        30.32F
FRANKFORT      MOSUNNY   72  10   9 NE7       30.27F
GAYLORD        MOSUNNY   66  23  19 VRB5      30.29F
GRAYLING       PTSUNNY   66  20  17 CALM      30.29F
HARBOR SPRINGS SUNNY     68  23  18 N5        30.29F
HOUGHTON LAKE  CLOUDY    66  19  16 NE5       30.29
MANISTEE       PTSUNNY   66  21  18 N7        30.28F
OSCODA         CLOUDY    54  45  71 E7        30.31S
PELLSTON       SUNNY     69  21  16 E10       30.29F
ROGERS CITY    MOSUNNY   56  41  57 NE6       30.32F
TRAVERSE CITY  MOSUNNY   66  35  31 N7        30.27F
$$
MIZ007>008-015-052100-
EASTERN UPPER MICHIGAN

CITY           SKY/WX    TMP DP  RH WIND       PRES   REMARKS
KINROSS        SUNNY     66  25  20 W7        30.29F
MACKINAC ISLAN SUNNY     64  25  22 SE13      30.30F
NEWBERRY       SUNNY     67  28  23 NW5       30.28F
S. S. MARIE    SUNNY     67  29  24 NW9       30.29F
MUNISING         N/A     51  32  48 NE7       30.28F
$$
MIZ004>006-011>014-085-052100-
CENTRAL UPPER MICHIGAN

CITY           SKY/WX    TMP DP  RH WIND       PRES   REMARKS
MANISTIQUE     SUNNY     62  32  33 S8        30.30F
ESCANABA       SUNNY     59  30  33 S10       30.31F
MENOMINEE      SUNNY     61  32  33 SE7       30.30F
SAWYER-GWINN   SUNNY     68  27  21 CALM      30.27F
$$
MIZ001>003-009>011-084-052100-
WESTERN UPPER MICHIGAN

CITY           SKY/WX    TMP DP  RH WIND       PRES   REMARKS
IRON MOUNTAIN  SUNNY     69  28  21 E8        30.26F
HOUGHTON       SUNNY     66  27  23 SE12      30.26F
COPPER HARBOR    N/A     66  27  23 S6        30.27F
IRONWOOD       SUNNY     72  25  17 SE6       30.19F
$$

ABBREVIATIONS USED IN REMARKS
   TC - TEMPERATURE IN CELSIUS
  WCI - WIND CHILL INDEX
   HX - HEAT INDEX
  VSB - VISIBILITY



USA.gov is the U.S. government's official web portal to all federal, state and local government web resources and services.